www.pogodaiklimat.ru
ПОГОДА в Стивенсвилле
Время
и дата
08:45 20.05
09:05 20.05
09:25 20.05
09:45 20.05
10:05 20.05
10:25 20.05
10:45 20.05
11:05 20.05
11:25 20.05
11:45 20.05
12:05 20.05
12:25 20.05
12:45 20.05
13:05 20.05
13:25 20.05
13:45 20.05
14:05 20.05
14:25 20.05
14:45 20.05
15:05 20.05
15:25 20.05
15:45 20.05
16:05 20.05
16:25 20.05
16:45 20.05
17:05 20.05
17:25 20.05
17:45 20.05
18:05 20.05
18:25 20.05
18:45 20.05
19:05 20.05
19:25 20.05
19:45 20.05
20:05 20.05
20:25 20.05
20:45 20.05
21:05 20.05
21:25 20.05
21:45 20.05
22:05 20.05
22:25 20.05
22:45 20.05
23:05 20.05
23:25 20.05
23:45 20.05
00:05 21.05
00:25 21.05
Ветер
(напр.,м/с)
Видим. Явления Облачность Т
(С)
Тd
(С)
f
(%)
Тe
(С)
Тes
(С)
Комфортность P
(гПа)
Po
(гПа)
Тmin
(С)
Tmax
(С)
R
(мм)
R24
(мм)
S
(см)
ЮВ 2 16 км 10/10 360 м +17.4 +15.9 91 +18 +18 1017.0
В 2 16 км 10/10 360 м +17.9 +15.9 88 +18 +18 1017.0
штиль 0 16 км 10/10 420 м +17.5 +15.6 89 +17 +17 1017.0
СЗ 2 16 км 10/10 420 м +18.1 +16.3 89 +19 +19 1017.0
СЗ 2 16 км 10/10 540 м +18.0 +16.3 90 +19 +19 1017.0
З 2 16 км 10/10 600 м +18.0 +16.3 90 +19 +19 1017.0
З 2 16 км 10/10 600 м +18.5 +16.5 88 +20 +20 1017.0
СЗ 3 16 км 10/10 600 м +18.3 +16.5 89 +19 +19 1016.7
З 2 16 км 10/10 600 м +18.7 +17.1 90 +20 +20 1016.7
штиль 0 16 км 10/10 600 м +19.0 +17.0 88 +20 +20 1016.7
З 2 16 км 8/8 600 м +19.9 +16.6 81 +23 +27 комфорт 1016.0
З 3 16 км 5/5 600 м +19.8 +17.0 84 +23 +31 комфорт 1016.0
СЗ 4 16 км ясно +20.5 +17.0 80 +24 +37 комфорт 1016.0 +15.1 +20.8
СЗ 3 16 км ясно +21.0 +17.4 80 +25 +41 комфорт 1016.0
СЗ 3 16 км ясно +21.0 +17.2 79 +25 +41 комфорт 1016.0
штиль 0 16 км 5/5 660 м +22.2 +16.2 69 +26 +39 душно 1015.7
ЮВ 3 16 км ясно +22.3 +16.5 70 +27 +40 душно 1015.3
ЮВ 3 16 км ясно +23.0 +16.2 66 +28 +41 душно 1015.3
В 3 16 км ясно +22.3 +16.7 71 +27 +40 душно 1015.0
В 3 16 км ясно +22.6 +16.9 70 +27 +38 душно 1015.0
ЮВ 2 16 км ясно +23.1 +17.0 69 +28 +41 душно 1015.0
ЮВ 2 16 км ясно +23.7 +16.7 65 +27 +40 жарко 1014.7
З 2 16 км ясно +22.8 +18.2 75 +28 +36 душно 1014.3
Ю 3 16 км ясно +23.8 +16.7 64 +27 +34 жарко 1014.3
Ю 3 16 км ясно +24.1 +17.4 66 +28 +35 душно 1014.3
Ю 3 16 км ясно +23.0 +17.5 71 +28 +32 душно 1014.0
Ю 3 16 км ясно +22.3 +17.3 73 +27 +30 душно 1014.0
Ю 2 16 км ясно +22.4 +17.4 73 +27 +31 душно 1014.0
Ю 2 16 км ясно +22.2 +17.8 76 +27 +28 душно 1014.0
Ю 3 16 км ясно +22.1 +17.8 77 +27 +28 душно 1014.3
Ю 2 16 км ясно +21.6 +18.7 84 +26 +28 душно 1014.3 +20.2 +24.3
штиль 0 16 км ясно +21.1 +18.7 86 +25 +25 комфорт 1014.3
ЮЗ 2 16 км ясно +19.7 +19.4 98 +23 +23 комфорт 1014.3
ЮЗ 2 16 км ясно +19.5 +19.5 100 +23 +23 комфорт 1014.3
Ю 2 16 км ясно +19.4 0.0 27 +20 +20 1014.3
штиль 0 16 км ясно +19.1 0.0 28 +19 +19 1014.7
штиль 0 16 км ясно +18.9 0.0 28 +19 +19 1014.7
штиль 0 16 км ясно +18.0 0.0 30 +18 +18 1015.0
Ю 2 16 км ясно +18.4 0.0 29 +19 +19 1015.0
штиль 0 16 км ясно +18.3 0.0 29 +18 +18 1015.0 0.3
штиль 0 16 км ясно +18.2 0.0 29 +18 +18 1014.7
штиль 0 16 км ясно +17.9 0.0 30 +18 +18 1014.7
штиль 0 16 км ясно +17.5 0.0 31 +18 +18 1014.3
штиль 0 16 км ясно +17.2 0.0 31 +17 +17 1014.3
штиль 0 16 км ясно +16.9 0.0 32 +17 +17 1014.3
штиль 0 16 км ясно +16.9 0.0 32 +17 +17 1014.3
штиль 0 16 км ясно +17.3 0.0 31 +17 +17 1014.3
Ю 2 16 км ясно +17.8 0.0 30 +18 +18 1014.3
Местоположение метеостанции Bay Bridge Field: широта 38.9767 долгота -76.3300 высота над уровнем моря 15 м.
В архиве по умолчанию представлена погода в Стивенсвилле за последние 1-2 суток. Обновление информации о фактической погоде в базе происходит ежечасно! Архивные данные за месяц целиком и за предыдущие месяцы Вы можете получить, выбрав интересующий диапазон дат из раскрывающегося списка и нажав кнопку "Ввод!".
Внимание! Архив погоды МЕТАР в базе сайта по станциям, не включенным в климатический монитор, хранится не более 60 дней. Нет смысла пытаться выбрать более раннюю дату.
*Определитесь, кто Вы:
Внимание! Время в таблицах - местное (без учета летнего времени). Для получения всемирного времени необходимо вычесть поправку, которая равна -5 ч.
Смотрите также архив погоды в соседних городах и на ближайших метеорологических станциях:
Партнеры нашего сайта:      
Пояснения к столбцам:
  • Ветер - указаны скорость ветра в м/с - средняя за 10 мин, порывы в срок и между сроками (в фигурных скобках) и направление, откуда дует ветер: С - северный,
  • СВ - северо-восточный, В - восточный, ЮВ - юго-восточный, Ю - южный, ЮЗ - юго-западный, З - западный, СЗ - северо-западный.
  • Видимость - горизонтальная дальность видимости в метрах или километрах. При видимости от 1 до 10 км при отсутствии осадков обычно наблюдается дымка, при ухудшении видимости до 1 км и менее - туман. В сухую погоду видимость может ухудшаться дымом, пылью или мглою.
  • Явления - указаны атмосферные явления, наблюдавшиеся в срок или в последний час перед сроком; фигурными скобками обозначены явления, наблюдавшиеся между сроками (за 1-3 часа до срока); квадратными скобками обозначены град или гололедные отложения с указанием их диаметра в мм.
  • Облачность - указаны через наклонную черту общая и нижняя облачность в баллах и высота нижней границы облаков в метрах; квадратными скобками обозначены формы облаков: Ci - перистые, Cs - перисто-слоистые, Cc - перисто-кучевые, Ac - высококучевые, As - высокослоистые, Sc - слоисто-кучевые, Ns - слоисто-дождевые, Cu - кучевые, Cb - кучево-дождевые. Подробнее классификацию облаков см. в Атласе облаков (PDF).
  • T - Температура воздуха - температура, измеренная на высоте 2 м над землей.
  • Td - Температура точки росы - температура, при понижении до которой содержащийся в воздухе водяной пар достигнет насыщения.
  • f - Относительная влажность воздуха - влажноcть воздуха, измеренная на высоте 2 м над землей.
  • Te - Эффективная температура - температура, которую ощущает одетый по сезону человек в тени. Характеристика душности погоды. При расчете учитывается влияние влажности воздуха и скорости ветра на теплоощущения человека.
  • Tes - Эффективная температура на солнце - температура, которую ощущает человек, с поправкой на солнечный нагрев. Характеристика знойности погоды. Зависит от высоты солнца над горизонтом, облачности и скорости ветра. Ночью, в пасмурную погоду, а также при ветре 12 м/с и более поправка равна нулю.
  • P - Атмосферное давление - приведенное к уровню моря атмосферное давление.
  • Po - Атмосферное давление - измеренное на уровне метеостанции атмосферное давление.
  • Tmin - Минимальная температура - минимум температуры воздуха на высоте 2 м над землей.
  • Tmax - Максимальная температура - максимум температуры воздуха на высоте 2 м над землей.
  • R - Количество осадков - Количество выпавших осадков за период времени, мм. При наведении курсора мыши на число - период времени, за который выпало указанное количество осадков.
  • R24 - Количество осадков - Количество выпавших осадков за 24 часа, мм.
  • S - Снежный покров - Высота снежного покрова, см. При наведении курсора мыши на число - состояние снежного покрова и степень покрытия местности в баллах.